NU, Nunavut

1:40 PM MST on December 03, 2016 (GMT -0700)
Pincher Creek

Weather History for CZPC - August, 2013

Change the Weather History Date:

Wednesday, August 28, 2013

  Actual Average Record
Temperature  
Mean Temperature 62 °F -  
Max Temperature 80 °F 71 °F 86 °F (2006)
Min Temperature 44 °F 46 °F 39 °F (2007)
Degree Days  
Heating Degree Days 3    
Growing Degree Days 12 (Base 50)    
Moisture  
Dew Point 47 °F    
Average Humidity 63    
Maximum Humidity 93    
Minimum Humidity 28    
Precipitation  
Precipitation 0.00 in - - ()
Sea Level Pressure  
Sea Level Pressure 29.95 in    
Wind  
Wind Speed 6 mph ()    
Max Wind Speed 16 mph    
Max Gust Speed -    
Visibility 9.1 miles    
Events      
Averages and records for this station are not official NWS values.
T = Trace of Precipitation, MM = Missing Value Source: Averaged Metar Reports

Daily Weather History Graph

Daily Weather History Graph

Search for Another Location

Airport or City:

Trip Planner

Search our weather history database for the weather conditions in past years. The results will help you decide how hot, cold, wet, or windy it might be!

Date:

Astronomy

Aug. 28, 2013 Rise Set
Actual Time 6:46 AM MDT 8:26 PM MDT
Civil Twilight 6:12 AM MDT 9:00 PM MDT
Nautical Twilight 5:31 AM MDT 9:41 PM MDT
Astronomical Twilight 4:45 AM MDT 10:26 PM MDT
Moon No Moon Rise 3:24 PM MDT (8/28)
Length of Visible Light 14h 47m
Length of Day
13h 40m
Waning Gibbous, 47% of the Moon is Illuminated
Aug 28
Waning Gibbous
Sep 5
New
Sep 12
First Quarter
Sep 19
Full
Sep 26
Last Quarter

Hourly Weather History & Observations

Time (MDT) Temp. Windchill Dew Point Humidity Pressure Visibility Wind Dir Wind Speed Gust Speed Precip Events Conditions
12:00 AM 53 °F - 46 °F 71% 29.93 in 10 mi WSW 9.2 mph - -  
12:00 AM 51.8 °F - 46.4 °F 82% 29.93 in 9.0 mi SSW 3.5 mph - N/A   Clear
1:00 AM 51.8 °F - 44.6 °F 76% 29.94 in 9.0 mi West 6.9 mph - N/A   Clear
2:00 AM 48.2 °F - 44.6 °F 87% 29.94 in 9.0 mi West 9.2 mph - N/A   Clear
3:00 AM 50.0 °F - 44.6 °F 82% 29.93 in 9.0 mi West 11.5 mph - N/A   Clear
4:00 AM 50.0 °F - 42.8 °F 76% 29.93 in 9.0 mi West 9.2 mph - N/A   Partly Cloudy
5:00 AM 48.2 °F - 42.8 °F 82% 29.94 in 9.0 mi WNW 3.5 mph - N/A   Clear
6:00 AM 46 °F - 43 °F 84% 29.94 in 10 mi West 8.1 mph - -  
6:00 AM 46.4 °F 41.9 °F 42.8 °F 87% 29.94 in 9.0 mi West 9.2 mph - N/A   Clear
7:00 AM 44.6 °F 40.2 °F 42.8 °F 93% 29.96 in 9.0 mi West 8.1 mph - N/A   Clear
8:00 AM 48.2 °F - 44.6 °F 87% 29.97 in 9.0 mi West 6.9 mph - N/A   Partly Cloudy
9:00 AM 53.6 °F - 46.4 °F 77% 29.98 in 9.0 mi WNW 5.8 mph - N/A   Partly Cloudy
10:00 AM 59.0 °F - 48.2 °F 67% 29.97 in 9.0 mi WNW 4.6 mph - N/A   Clear
11:00 AM 64.4 °F - 48.2 °F 56% 29.97 in 9.0 mi NW 4.6 mph - N/A   Mostly Cloudy
12:00 PM 66 °F - 50 °F 47% 29.97 in 10 mi West 3.5 mph - -  
12:00 PM 66.2 °F - 50.0 °F 56% 29.97 in 9.0 mi West 3.5 mph - N/A   Mostly Cloudy
1:00 PM 68.0 °F - 50.0 °F 52% 29.96 in 9.0 mi WSW 3.5 mph - N/A   Mostly Cloudy
2:00 PM 69.8 °F - 48.2 °F 46% 29.97 in 9.0 mi West 3.5 mph - N/A   Mostly Cloudy
3:00 PM 71.6 °F - 50.0 °F 46% 29.96 in 9.0 mi Variable 2.3 mph - N/A   Overcast
4:00 PM 77.0 °F - 46.4 °F 34% 29.92 in 9.0 mi NW 3.5 mph - N/A   Clear
4:59 PM 80.6 °F - 44.6 °F 28% 29.90 in 9.0 mi WSW 16.1 mph - N/A   Clear
5:00 PM 80.6 °F - 44.6 °F 28% 29.91 in 9.0 mi WSW 16.1 mph - N/A   Clear
6:00 PM 78.8 °F - 46.4 °F 32% 29.92 in 9.0 mi SW 5.8 mph - N/A   Clear
7:00 PM 77.0 °F - 48.2 °F 36% 29.93 in 9.0 mi SW 8.1 mph - N/A   Partly Cloudy
8:00 PM 69.8 °F - 50.0 °F 49% 29.95 in 9.0 mi WSW 9.2 mph - N/A   Mostly Cloudy
9:00 PM 64.4 °F - 50.0 °F 59% 29.97 in 9.0 mi West 6.9 mph - N/A   Clear
10:00 PM 59.0 °F - 50.0 °F 72% 29.98 in 9.0 mi WSW 6.9 mph - N/A   Clear
11:00 PM 55.4 °F - 48.2 °F 77% 29.99 in 9.0 mi WSW 8.1 mph - N/A   Clear